Temperature
6 6 6 7 8 9 9 9 9 10 11 10 10 10 10 11 11 11 11 11 12 12 13 13 13 13 13 13 13 13 13 13 13 12 12 12 12 12 12 12 12 12 12 12
5 5 7 8 8 8 8 9 9 10 11 10 9 10 10 10 10 11 11 11 12 12 12 12 13 13 13 13 13 13 13 13 12 12 12 12 12 12 12 12 12 12 12 12
5 6 7 7 7 8 8 8 8 9 9 10 9 9 9 10 10 11 11 11 12 12 12 12 12 12 12 12 12 12 12 12 12 12 12 12 12 11 11 11 12 12 12 12
5 6 7 7 7 7 7 8 9 9 8 8 9 8 8 9 9 9 10 10 11 11 12 12 12 12 12 12 12 12 12 12 12 12 12 12 12 12 12 12 11 11 11 11
5 6 6 6 7 7 7 8 8 8 8 7 8 7 7 8 9 9 9 10 10 11 11 11 12 12 12 12 12 12 12 12 12 11 11 11 11 11 11 11 11 11 11 11
5 6 6 6 7 7 7 7 7 7 7 7 7 7 7 8 9 9 9 9 10 10 11 11 11 11 11 11 11 11 11 11 11 11 11 11 11 11 11 11 11 11 11 10
4 5 6 7 6 6 6 6 6 6 6 6 7 7 7 8 9 9 9 9 9 10 10 10 10 11 11 11 11 11 11 11 11 10 10 10 10 10 11 11 11 10 10 10
3 3 5 6 6 6 6 6 6 6 6 6 7 7 7 7 8 9 9 9 9 9 9 9 10 10 10 10 10 10 10 10 10 10 10 10 10 10 10 10 10 10 10 10
2 3 5 6 6 6 5 5 5 5 5 6 6 6 6 7 7 7 7 8 8 8 8 9 9 9 10 10 10 10 10 10 10 10 10 9 9 9 9 9 9 9 9 9
2 2 4 5 6 6 6 5 5 5 5 6 6 6 6 6 6 6 6 6 7 7 7 8 8 9 9 9 9 9 9 10 9 9 9 9 9 9 9 9 9 9 9 9
2 2 3 4 4 4 5 5 4 4 4 5 6 6 6 5 6 5 5 6 6 6 7 7 8 8 8 8 9 9 9 9 9 9 9 8 8 8 8 8 8 8 8 8
2 1 1 2 3 4 4 4 4 4 4 4 4 5 5 4 4 5 5 5 5 6 6 6 7 7 7 8 8 8 8 8 8 8 8 8 8 8 8 8 8 8 8 7
2 1 1 2 3 3 3 4 4 3 3 3 4 5 4 3 3 4 4 4 4 5 5 5 6 6 7 7 7 7 7 7 7 7 7 7 7 7 7 7 7 7 7 7
2 -0 1 2 2 2 2 3 3 3 3 3 4 4 4 3 3 3 3 3 3 4 4 5 5 5 6 6 6 7 7 7 7 7 7 7 7 7 7 7 7 7 6 6
0 -0 0 1 2 2 2 3 3 3 3 3 3 3 3 3 2 2 2 2 3 3 3 3 4 4 5 5 6 6 6 6 6 6 6 6 6 6 6 6 6 6 6 6
-2 -1 -0 1 2 2 2 2 3 3 3 3 3 3 2 2 2 1 2 2 1 1 2 2 3 4 4 4 5 5 5 5 5 5 5 5 5 5 5 5 5 5 5 5
-2 -1 -1 -0 1 1 1 1 2 2 2 2 3 2 1 1 1 1 1 1 1 1 1 1 2 3 3 3 4 4 4 4 4 5 5 5 5 5 5 5 5 5 5 4
-2 -2 -2 -1 -0 1 1 0 1 1 1 1 1 1 0 -0 0 1 1 1 0 0 0 1 2 2 2 3 3 3 3 3 4 4 4 4 4 4 4 4 4 4 4 4
-2 -2 -2 -2 -1 -0 0 -0 -1 0 -0 -1 -0 -0 -1 -0 -0 -0 0 0 0 0 0 1 1 1 2 2 2 3 3 3 3 3 3 3 3 3 3 3 3 3 3 3
-2 -3 -2 -2 -1 -0 -0 -1 -1 -1 -1 -1 -1 -1 -1 -1 -1 -1 -1 -0 -0 0 0 0 1 1 1 1 2 2 2 2 2 2 2 2 2 2 2 2 2 2 2 2
-3 -3 -3 -3 -2 -2 -2 -2 -1 -0 -1 -2 -2 -2 -2 -2 -2 -2 -1 -1 -1 -1 -0 -0 -0 0 0 1 1 1 1 2 2 2 1 1 1 1 1 2 1 1 1 1
-4 -4 -4 -3 -3 -2 -3 -3 -2 -2 -2 -2 -2 -2 -2 -2 -2 -2 -2 -2 -2 -1 -1 -1 -1 -1 -0 -0 0 0 1 1 1 1 1 1 1 1 1 1 1 1 1 0
-5 -4 -4 -4 -3 -4 -3 -3 -3 -3 -3 -3 -3 -2 -3 -3 -3 -3 -3 -2 -2 -2 -2 -2 -1 -1 -1 -1 -1 -0 -0 -0 0 0 0 0 0 0 0 0 0 -0 -0 -0
-5 -5 -5 -5 -5 -4 -4 -4 -3 -3 -3 -3 -3 -3 -3 -3 -3 -3 -3 -3 -3 -3 -2 -2 -2 -2 -2 -1 -1 -1 -1 -1 -1 -1 -0 -0 -0 -0 -1 -1 -1 -1 -1 -1
-6 -6 -5 -5 -5 -5 -4 -4 -4 -4 -4 -3 -3 -3 -3 -3 -4 -4 -4 -3 -3 -3 -3 -3 -3 -2 -2 -2 -2 -2 -2 -1 -1 -1 -1 -1 -1 -1 -1 -1 -2 -2 -2 -2
-7 -6 -6 -5 -5 -6 -5 -4 -4 -4 -4 -4 -4 -4 -4 -4 -4 -4 -4 -4 -4 -4 -4 -3 -3 -3 -3 -3 -2 -2 -2 -2 -2 -2 -2 -2 -2 -2 -2 -2 -2 -2 -2 -2
Wind_Speed
4 5 10 12 11 5 6 6 6 6 4 5 7 7 6 6 6 7 8 8 8 8 6 6 7 8 9 10 11 12 12 11 10 8 7 6 5 4 4 5 8 9 10 9
3 8 8 5 5 5 5 6 5 3 3 4 5 7 6 6 8 9 10 10 9 7 5 6 7 7 9 11 11 12 12 12 11 8 6 4 5 3 3 4 6 8 9 9
6 4 5 5 5 7 8 8 7 4 1 1 3 4 6 4 4 5 7 8 9 10 10 9 8 8 9 10 11 12 12 11 10 9 7 6 5 4 2 2 2 4 7 8
3 2 5 6 7 7 8 6 6 5 4 4 5 5 6 5 5 6 7 7 7 7 8 10 10 10 10 10 9 10 11 11 10 10 11 11 8 5 4 4 3 3 6 7
4 3 6 7 7 6 4 3 4 5 5 3 3 4 6 4 8 9 8 8 7 7 8 10 10 11 10 9 9 9 9 10 9 9 11 11 7 5 4 4 5 3 3 5
3 2 4 4 3 5 2 2 2 2 3 6 8 6 6 7 11 8 7 7 7 6 6 7 7 7 7 7 8 8 9 9 9 9 9 10 10 8 7 6 5 4 2 3
2 2 2 3 3 3 4 5 3 3 5 6 6 6 6 6 6 8 9 8 7 6 6 6 7 7 7 8 8 9 10 9 9 9 8 9 9 10 10 8 7 5 3 2
1 3 4 3 5 6 7 7 5 5 6 2 5 7 4 3 2 4 5 5 5 5 5 6 7 7 7 8 8 9 10 9 8 9 8 7 7 7 6 7 6 6 5 4
2 4 2 2 3 6 6 6 3 2 2 2 5 3 4 2 1 2 4 4 5 5 5 5 5 5 6 7 8 9 9 8 8 8 7 6 7 6 6 6 5 4 4 4
2 2 3 2 2 1 4 5 4 3 4 3 3 4 4 3 4 4 4 4 3 4 4 4 3 4 4 4 5 7 8 8 7 7 7 6 6 6 6 6 6 5 4 4
1 1 2 1 2 4 3 4 3 3 2 3 4 4 2 4 5 6 5 4 3 4 4 3 2 2 3 3 4 5 6 6 6 6 6 6 6 6 6 5 6 5 4 5
1 2 1 3 2 1 2 4 5 4 3 2 3 3 2 1 1 2 3 2 2 2 3 3 3 3 3 3 3 4 4 5 5 5 5 5 5 6 6 5 5 5 5 5
1 3 1 2 2 1 1 2 4 3 2 2 3 4 2 3 2 2 3 3 3 3 3 4 4 3 3 2 2 3 3 4 4 5 5 5 5 5 6 5 5 5 5 5
1 3 4 6 3 2 2 3 3 4 4 4 5 4 4 2 1 1 1 2 3 3 3 3 3 3 2 2 2 2 3 3 4 5 5 5 5 5 5 5 5 5 5 5
2 1 2 3 4 2 4 5 5 6 6 6 5 5 6 4 3 1 1 2 3 3 4 3 2 2 2 2 2 2 2 3 4 5 5 4 4 4 4 4 4 4 4 4
2 1 0 2 3 3 4 6 7 7 5 5 4 6 4 1 1 1 1 3 3 2 3 3 2 2 2 2 2 2 2 3 4 5 5 4 4 4 4 4 4 4 3 3
1 1 1 2 3 0 4 6 6 4 3 4 6 6 1 1 1 2 2 3 2 1 1 2 1 1 1 1 2 2 2 3 4 5 4 4 4 4 4 4 4 4 3 3
2 2 1 0 2 4 4 1 2 3 1 1 1 1 1 1 1 1 2 2 2 1 1 1 1 1 1 2 2 2 3 4 4 4 4 4 4 4 4 4 4 3 3 3
4 4 2 2 2 3 4 2 1 2 2 1 1 1 0 1 3 3 2 2 1 1 1 1 1 2 2 2 3 3 4 4 4 4 3 3 4 4 4 4 3 2 3 2
2 3 3 2 2 4 3 3 3 1 2 2 0 2 2 1 1 3 2 2 2 2 2 2 2 3 3 2 3 4 4 4 3 3 2 3 3 4 4 3 2 2 2 2
2 1 2 2 3 4 4 5 1 3 4 2 0 1 1 1 3 2 1 1 2 2 2 3 3 3 2 2 4 5 4 3 2 2 3 3 3 3 3 3 2 3 3 3
2 1 1 2 2 5 4 2 2 3 1 1 0 0 0 1 1 1 2 2 2 2 2 3 3 3 2 2 4 4 3 2 2 3 4 4 3 3 3 3 3 3 3 2
2 3 2 3 3 2 1 0 1 0 1 2 1 1 1 1 1 1 1 1 2 2 2 2 3 3 3 3 3 4 2 2 3 4 4 3 4 3 3 3 3 2 2 1
3 1 1 2 3 2 2 2 3 2 1 2 1 1 2 2 2 1 1 1 2 2 2 2 3 3 3 3 3 3 2 3 3 4 3 3 3 3 3 2 2 1 1 0
4 1 1 2 3 3 3 2 2 2 2 2 2 0 1 3 2 2 2 1 1 1 1 2 2 3 2 3 3 3 2 3 4 3 3 3 3 3 2 2 1 1 0 1
2 3 3 5 4 3 3 2 1 1 2 1 1 1 1 2 2 2 2 1 1 1 2 2 2 3 2 3 3 2 2 3 3 3 3 2 2 2 2 2 2 4 3 3
Wind_Direction
171 178 204 205 202 205 179 180 193 203 200 169 197 218 231 217 185 186 187 186 189 197 193 176 170 167 157 155 156 156 154 154 149 147 148 146 148 142 123 125 134 134 133 133
159 218 216 202 206 217 210 195 198 207 203 179 200 232 240 220 203 191 188 192 194 190 182 176 166 162 164 165 166 163 162 160 161 160 157 147 141 135 131 123 125 133 135 136
197 219 189 188 198 208 218 202 195 192 163 179 152 257 250 246 212 199 195 191 191 189 186 181 173 170 168 170 173 171 168 164 160 148 135 123 102 92 104 130 133 131 138 138
218 228 185 191 205 199 220 212 208 196 173 214 176 215 250 224 217 208 207 196 194 191 183 179 175 175 177 177 173 171 168 164 159 152 153 154 158 161 178 167 156 135 137 135
218 195 178 199 209 195 208 213 214 195 180 204 202 189 255 208 214 218 211 203 195 190 180 180 181 181 179 173 169 167 165 164 162 162 163 162 160 157 144 141 142 137 123 130
232 228 191 198 195 194 159 101 74 87 147 213 206 186 239 212 206 203 205 201 195 189 180 175 171 167 166 163 162 162 161 162 165 166 166 167 164 156 150 154 157 154 143 128
312 265 213 156 153 175 155 136 156 187 203 227 184 186 237 227 201 195 196 198 192 179 168 164 160 160 163 164 166 166 165 167 168 167 171 174 171 166 168 170 170 165 163 169
189 250 218 181 181 187 191 171 178 185 194 221 179 207 239 264 232 181 176 175 168 163 164 167 169 168 167 170 167 167 171 170 171 172 174 172 169 171 174 175 172 175 177 177
187 254 286 198 154 156 172 191 179 134 142 168 211 244 293 341 63 130 141 145 157 165 163 167 167 166 166 170 174 171 169 167 172 173 169 169 170 172 172 171 167 168 163 154
173 258 288 261 98 136 168 158 138 151 165 196 213 219 216 209 201 178 162 165 173 159 152 151 154 159 161 165 165 164 167 169 168 170 172 172 173 171 169 164 166 167 164 150
146 181 304 41 165 182 160 157 144 156 190 177 192 243 228 209 201 186 185 172 165 166 163 155 140 129 130 126 135 151 158 157 161 166 164 165 169 166 163 169 172 169 162 157
120 120 265 259 275 208 174 168 159 172 216 204 177 250 311 266 295 158 151 143 139 140 140 129 116 106 103 112 128 139 151 156 164 163 159 160 163 160 162 170 173 165 164 163
81 115 81 344 335 4 213 194 175 153 136 183 184 238 354 28 44 67 105 92 86 97 103 100 100 104 110 112 113 126 140 148 148 149 148 150 155 160 165 171 172 166 164 161
64 125 174 195 208 178 232 235 195 162 190 211 220 229 285 321 351 15 88 88 92 81 83 93 95 96 101 108 108 109 122 133 136 138 143 149 158 164 166 165 162 163 163 163
84 136 218 254 257 223 234 230 205 201 203 202 224 229 251 252 243 235 127 94 81 67 55 67 78 81 87 86 87 95 108 126 133 134 137 146 150 147 145 148 152 152 155 161
49 117 343 300 272 231 247 244 225 228 225 215 225 257 274 261 114 108 130 111 94 70 47 46 61 70 83 97 97 93 102 113 125 131 135 135 133 131 135 142 145 146 149 152
45 99 63 285 309 298 248 231 207 210 222 204 223 237 242 328 268 194 155 122 118 101 59 39 62 77 99 111 113 108 104 105 112 119 123 125 127 126 125 132 133 139 151 153
156 131 139 238 59 217 240 307 205 186 248 273 219 188 190 200 316 38 113 119 115 99 69 38 69 86 73 88 89 88 94 103 109 110 113 119 121 121 117 117 127 138 148 158
175 156 144 148 193 272 304 340 23 186 256 315 215 166 121 85 55 20 25 67 106 125 118 83 91 102 81 83 96 95 90 97 105 109 111 115 122 122 121 123 128 141 142 143
97 128 141 148 173 229 264 308 305 122 272 332 342 184 192 114 172 256 357 33 52 63 76 78 72 83 84 81 98 100 93 91 98 106 116 112 117 124 128 134 131 126 130 127
31 50 164 185 209 261 290 304 343 163 242 317 319 199 198 203 223 218 63 54 84 85 81 85 80 77 75 92 104 102 95 86 79 88 95 96 98 112 117 113 115 116 108 100
190 170 202 171 197 259 325 20 157 225 289 308 272 238 117 116 111 111 98 94 92 87 83 85 86 70 50 77 106 103 95 79 81 91 92 90 87 90 94 99 97 101 103 100
210 205 200 197 217 274 322 228 292 268 232 292 270 242 139 119 121 111 100 101 105 111 99 91 99 79 49 55 96 105 86 81 88 91 90 90 85 80 87 100 102 100 97 110
301 300 198 247 271 286 327 343 350 344 290 297 282 205 140 148 152 130 116 105 93 91 98 93 94 86 62 51 67 86 85 81 92 96 90 87 89 78 66 67 87 108 124 127
260 259 225 252 277 319 328 327 321 337 353 350 344 346 147 144 155 155 145 136 116 99 87 97 102 98 83 69 66 67 74 94 97 97 90 77 78 90 80 59 55 49 248 231
242 203 206 240 237 219 268 304 348 27 351 327 348 7 36 138 159 161 166 161 134 112 98 95 90 96 92 86 75 58 61 96 108 99 89 80 82 82 83 75 39 27 26 22
Height
1467 1471 1470 1469 1470 1471 1473 1476 1478 1477 1474 1478 1481 1481 1480 1479 1480 1482 1484 1486 1488 1490 1494 1498 1500 1504 1507 1509 1512 1515 1518 1521 1524 1527 1530 1532 1535 1538 1540 1542 1543 1545 1546 1547
1469 1468 1466 1468 1469 1471 1472 1475 1477 1476 1474 1477 1481 1480 1478 1478 1478 1479 1481 1483 1485 1488 1491 1494 1497 1500 1503 1506 1509 1513 1516 1519 1522 1525 1528 1531 1534 1536 1538 1540 1541 1543 1544 1545
1466 1465 1465 1467 1469 1471 1472 1474 1475 1476 1476 1477 1481 1483 1479 1477 1477 1477 1479 1480 1482 1484 1487 1490 1494 1497 1500 1503 1506 1509 1513 1516 1520 1523 1526 1529 1532 1534 1536 1537 1539 1541 1542 1543
1465 1464 1464 1467 1468 1470 1471 1470 1472 1474 1479 1484 1482 1490 1481 1477 1477 1476 1477 1478 1479 1482 1484 1487 1490 1493 1496 1500 1503 1507 1511 1514 1517 1520 1523 1525 1527 1529 1532 1534 1537 1539 1540 1541
1465 1463 1464 1466 1467 1468 1470 1470 1471 1473 1478 1484 1483 1488 1482 1476 1476 1474 1474 1475 1477 1479 1481 1484 1487 1490 1493 1497 1500 1504 1508 1511 1514 1517 1520 1523 1526 1528 1531 1533 1535 1536 1537 1539
1464 1463 1463 1464 1465 1468 1469 1472 1474 1476 1480 1485 1481 1485 1480 1473 1468 1469 1471 1473 1474 1476 1478 1481 1484 1488 1491 1494 1498 1501 1505 1508 1511 1515 1517 1520 1523 1525 1528 1529 1531 1533 1535 1536
1466 1464 1462 1463 1467 1469 1471 1476 1480 1481 1483 1480 1476 1478 1474 1466 1464 1465 1467 1469 1471 1473 1475 1478 1481 1484 1487 1491 1494 1498 1501 1504 1508 1511 1514 1517 1520 1523 1525 1527 1529 1530 1531 1533
1472 1470 1463 1462 1464 1467 1469 1473 1478 1478 1479 1479 1474 1475 1470 1464 1462 1463 1465 1467 1469 1471 1473 1476 1478 1481 1484 1487 1490 1494 1498 1501 1505 1508 1511 1514 1517 1520 1522 1524 1526 1527 1529 1530
1473 1469 1461 1460 1460 1465 1468 1471 1472 1477 1479 1479 1475 1472 1468 1463 1463 1463 1464 1466 1467 1469 1471 1474 1476 1479 1481 1484 1487 1490 1494 1498 1501 1505 1508 1511 1514 1517 1519 1521 1523 1525 1526 1527
1471 1472 1464 1462 1461 1463 1465 1467 1473 1477 1476 1475 1473 1472 1470 1466 1464 1464 1464 1465 1466 1468 1470 1472 1474 1476 1479 1482 1485 1488 1491 1494 1498 1501 1505 1508 1511 1513 1516 1518 1520 1521 1523 1524
1469 1473 1469 1465 1465 1465 1467 1468 1470 1475 1475 1474 1475 1473 1464 1464 1462 1463 1463 1464 1465 1467 1468 1470 1473 1475 1477 1480 1482 1485 1488 1491 1495 1498 1501 1504 1507 1510 1512 1514 1516 1518 1519 1520
1470 1474 1475 1470 1466 1465 1465 1466 1470 1474 1477 1476 1476 1475 1464 1464 1463 1462 1464 1465 1466 1467 1468 1470 1471 1473 1476 1478 1480 1483 1485 1488 1491 1494 1498 1501 1503 1506 1508 1510 1512 1514 1515 1517
1470 1475 1478 1474 1472 1468 1467 1466 1468 1471 1476 1479 1477 1473 1464 1464 1464 1464 1464 1465 1466 1467 1468 1469 1470 1472 1474 1476 1479 1481 1483 1486 1488 1491 1494 1497 1500 1502 1504 1507 1509 1510 1512 1513
1469 1475 1477 1474 1469 1469 1469 1467 1467 1470 1474 1475 1471 1469 1467 1466 1466 1465 1465 1465 1466 1467 1467 1468 1469 1471 1473 1475 1477 1479 1481 1484 1486 1488 1491 1494 1496 1498 1501 1503 1505 1507 1508 1509
1471 1475 1474 1471 1468 1468 1468 1466 1466 1468 1469 1470 1467 1467 1465 1465 1466 1466 1465 1465 1466 1466 1467 1468 1469 1470 1471 1473 1475 1477 1479 1481 1484 1486 1488 1491 1493 1495 1497 1499 1501 1503 1505 1506
1474 1476 1475 1471 1466 1467 1467 1465 1464 1464 1465 1466 1466 1467 1464 1464 1465 1465 1465 1465 1466 1466 1467 1467 1468 1469 1471 1473 1474 1476 1478 1480 1482 1484 1486 1488 1490 1492 1494 1496 1498 1500 1501 1502
1477 1477 1478 1475 1470 1467 1469 1466 1464 1464 1464 1464 1464 1465 1465 1465 1465 1465 1465 1465 1466 1467 1467 1467 1468 1469 1470 1472 1473 1475 1477 1478 1480 1482 1484 1486 1487 1489 1491 1493 1495 1496 1498 1499
1476 1478 1480 1478 1475 1473 1468 1465 1464 1464 1465 1465 1464 1464 1465 1465 1465 1466 1466 1466 1466 1467 1467 1467 1468 1469 1470 1472 1473 1475 1476 1477 1479 1481 1482 1484 1485 1487 1488 1490 1492 1493 1494 1495
1472 1476 1480 1481 1478 1473 1468 1466 1466 1466 1466 1466 1465 1465 1465 1465 1465 1466 1467 1467 1467 1467 1467 1468 1468 1469 1470 1471 1472 1474 1475 1477 1478 1479 1481 1482 1483 1485 1486 1488 1489 1490 1491 1492
1473 1475 1479 1481 1477 1474 1469 1468 1466 1467 1468 1466 1464 1464 1464 1464 1468 1467 1466 1466 1467 1467 1467 1467 1468 1469 1470 1471 1472 1473 1474 1476 1477 1478 1480 1481 1482 1483 1484 1485 1487 1488 1489 1489
1480 1479 1480 1480 1480 1474 1471 1467 1466 1470 1467 1466 1465 1464 1464 1464 1465 1465 1465 1466 1466 1467 1467 1467 1467 1468 1469 1470 1471 1472 1473 1475 1476 1477 1479 1480 1481 1482 1483 1484 1484 1485 1486 1487
1482 1482 1482 1481 1480 1477 1470 1467 1469 1468 1466 1465 1464 1464 1464 1464 1464 1464 1465 1465 1466 1466 1467 1467 1467 1468 1469 1470 1471 1471 1473 1474 1475 1477 1478 1479 1480 1480 1481 1482 1483 1483 1484 1485
1481 1480 1478 1478 1477 1473 1469 1468 1467 1466 1465 1464 1463 1463 1463 1463 1463 1463 1464 1465 1465 1466 1466 1467 1467 1467 1468 1469 1470 1471 1472 1473 1475 1476 1477 1478 1479 1479 1480 1480 1481 1482 1482 1483
1478 1476 1476 1476 1473 1471 1469 1467 1466 1465 1464 1463 1463 1463 1463 1463 1463 1463 1464 1464 1465 1465 1466 1466 1467 1467 1468 1469 1470 1471 1472 1473 1474 1475 1476 1477 1477 1478 1479 1479 1480 1480 1480 1481
1478 1476 1475 1474 1472 1469 1468 1467 1466 1465 1464 1463 1462 1462 1462 1462 1462 1463 1463 1464 1464 1465 1465 1466 1467 1467 1467 1468 1469 1470 1471 1472 1473 1474 1475 1476 1476 1477 1478 1478 1478 1479 1479 1479
1475 1475 1474 1472 1469 1469 1467 1466 1465 1464 1463 1463 1462 1461 1462 1462 1462 1462 1463 1463 1464 1464 1465 1465 1466 1466 1467 1468 1469 1470 1471 1472 1472 1473 1474 1474 1475 1476 1476 1477 1477 1477 1477 1477